EW3176 Weather Reports


Display with metric or nautical units.
time (UTC)temp
F
wind
direction
speed
MPH
gust
MPH
rain 1hr
in
rain 24hr
in
rain mn
in
humidity
%
barometer
mb
20260506073520 64 0.0 4.0 0.00 0.00 0.00 81 1017.3
20260506072520 64 0.0 3.0 0.00 0.00 0.00 80 1017.2
20260506071522 64 68 1.0 3.0 0.00 0.00 0.00 80 1017.5
20260506070522 64 0.0 4.0 0.00 0.00 0.00 80 1017.4
20260506061521 65 0.0 4.0 0.00 0.00 0.00 79 1017.6
20260506061021 65 0.0 2.0 0.00 0.00 0.00 79 1017.9
20260506051021 66 68 1.0 4.0 0.00 0.00 0.00 77 1018.2
20260506045021 66 45 1.0 4.0 0.00 0.00 0.00 76 1018.4
20260506044021 66 45 1.0 5.0 0.00 0.00 0.00 75 1018.4
20260506043021 66 45 1.0 4.0 0.00 0.00 0.00 75 1018.2
20260506042021 67 45 1.0 6.0 0.00 0.00 0.00 74 1018.1
20260506041041 67 0.0 3.0 0.00 0.00 0.00 73 1018.1
20260506040043 67 0.0 3.0 0.00 0.00 0.00 72 1018.1
20260506035041 68 45 1.0 5.0 0.00 0.00 0.00 72 1018.1
20260506034021 68 45 1.0 4.0 0.00 0.00 0.00 71 1018.2
20260506033021 68 45 1.0 7.0 0.00 0.00 0.00 70 1018.2
20260506032021 69 225 1.0 4.0 0.00 0.00 0.00 70 1018.1
20260506031021 69 0.0 5.0 0.00 0.00 0.00 69 1018.1
20260506030021 70 0.0 3.0 0.00 0.00 0.00 68 1018.1
20260506025020 70 45 1.0 7.0 0.00 0.00 0.00 67 1018.2
20260506024021 70 45 1.0 5.0 0.00 0.00 0.00 66 1018.2
20260506023021 71 45 1.0 8.0 0.00 0.00 0.00 65 1018.1
20260506022041 71 45 1.0 8.0 0.00 0.00 0.00 64 1018.1
20260506021021 72 45 1.0 4.0 0.00 0.00 0.00 63 1018.0
20260506020021 72 68 1.0 10.0 0.00 0.00 0.00 62 1017.8
20260506015041 73 45 1.0 7.0 0.00 0.00 0.00 61 1017.8
20260506014021 73 68 1.0 6.0 0.00 0.00 0.00 60 1017.7
20260506013041 73 68 2.0 8.0 0.00 0.00 0.00 59 1017.4
20260506012021 74 45 1.0 7.0 0.00 0.00 0.00 58 1017.3
20260506011021 74 68 1.0 7.0 0.00 0.00 0.00 56 1017.2
20260506010021 74 0.0 3.0 0.00 0.00 0.00 55 1017.0
20260506005021 75 0.0 2.0 0.00 0.00 0.00 53 1017.0
20260506004040 75 0.0 2.0 0.00 0.00 0.00 53 1016.8
20260506003041 75 0.0 3.0 0.00 0.00 0.00 52 1016.6
20260506002020 76 45 1.0 3.0 0.00 0.00 0.00 51 1016.5
20260506001021 76 0.0 2.0 0.00 0.00 0.00 50 1016.3
20260506000021 77 45 1.0 7.0 0.00 0.00 0.00 49 1016.2
20260505235021 77 45 1.0 4.0 0.00 0.00 0.00 49 1016.2
20260505234021 77 0.0 3.0 0.00 0.00 0.00 48 1016.0
20260505233021 78 68 1.0 5.0 0.00 0.00 0.00 47 1016.1
20260505232020 79 68 1.0 5.0 0.00 0.00 0.00 46 1016.0
20260505231020 79 0.0 2.0 0.00 0.00 0.00 46 1015.9
20260505230021 79 0.0 2.0 0.00 0.00 0.00 46 1016.1
20260505225021 79 0.0 2.0 0.00 0.00 0.00 46 1016.1
20260505224020 79 90 1.0 4.0 0.00 0.00 0.00 45 1016.3
20260505223020 79 225 1.0 5.0 0.00 0.00 0.00 44 1016.4
20260505222041 80 248 1.0 7.0 0.00 0.00 0.00 44 1016.4
20260505221020 80 68 1.0 5.0 0.00 0.00 0.00 44 1016.5
20260505220020 81 225 1.0 12.0 0.00 0.00 0.00 43 1016.5
20260505215022 81 68 2.0 9.0 0.00 0.00 0.00 43 1016.4
20260505214021 81 45 1.0 6.0 0.00 0.00 0.00 44 1016.5
20260505213021 81 45 2.0 6.0 0.00 0.00 0.00 42 1016.5
20260505212020 82 23 2.0 9.0 0.00 0.00 0.00 42 1016.5
20260505211020 82 45 1.0 4.0 0.00 0.00 0.00 41 1016.5
20260505210041 83 45 2.0 6.0 0.00 0.00 0.00 42 1016.7
20260505205020 83 45 2.0 9.0 0.00 0.00 0.00 41 1016.7
20260505204020 83 45 1.0 5.0 0.00 0.00 0.00 41 1016.7
20260505203022 83 45 1.0 9.0 0.00 0.00 0.00 41 1017.0
20260505202020 84 68 2.0 8.0 0.00 0.00 0.00 40 1017.1
20260505201021 84 45 1.0 3.0 0.00 0.00 0.00 40 1017.1
20260505200020 84 248 1.0 5.0 0.00 0.00 0.00 41 1017.1
20260505195104 83 45 1.0 5.0 0.00 0.00 0.00 42 1017.2
20260505194020 83 45 1.0 4.0 0.00 0.00 0.00 41 1017.4
20260505192022 83 45 1.0 8.0 0.00 0.00 0.00 40 1018.0
20260505191022 83 225 1.0 5.0 0.00 0.00 0.00 40 1017.9
20260505190020 83 293 1.0 4.0 0.00 0.00 0.00 41 1018.1
20260505185203 83 45 1.0 4.0 0.00 0.00 0.00 42 1018.2
20260505184022 83 45 1.0 5.0 0.00 0.00 0.00 43 1018.4
20260505183022 83 45 1.0 3.0 0.00 0.00 0.00 42 1018.4
20260505182020 83 45 1.0 4.0 0.00 0.00 0.00 43 1018.7
20260505181022 82 45 1.0 5.0 0.00 0.00 0.00 42 1018.7
20260505180042 82 68 2.0 5.0 0.00 0.00 0.00 43 1018.7
20260505175022 82 45 1.0 5.0 0.00 0.00 0.00 44 1018.8
20260505174022 83 225 1.0 5.0 0.00 0.00 0.00 43 1018.9
20260505173102 82 45 1.0 4.0 0.00 0.00 0.00 43 1018.8
20260505172022 82 68 1.0 4.0 0.00 0.00 0.00 44 1018.9
20260505171042 81 45 1.0 6.0 0.00 0.00 0.00 44 1018.8
20260505170022 82 45 1.0 4.0 0.00 0.00 0.00 45 1019.0
20260505165022 82 45 1.0 5.0 0.00 0.00 0.00 46 1019.2
20260505164022 82 113 1.0 3.0 0.00 0.00 0.00 44 1019.5
20260505163022 82 45 1.0 5.0 0.00 0.00 0.00 44 1019.5
20260505162042 82 113 1.0 4.0 0.00 0.00 0.00 45 1019.5
20260505161022 81 293 1.0 5.0 0.00 0.00 0.00 46 1019.5
20260505153022 81 0.0 2.0 0.00 0.00 0.00 47 1020.0
20260505152022 79 45 1.0 3.0 0.00 0.00 0.00 51 1020.1
20260505151022 79 0.0 2.0 0.00 0.00 0.00 50 1019.9
20260505124522 68 0.0 4.0 0.00 0.00 0.00 67 1020.0
20260505123541 66 45 1.0 4.0 0.00 0.00 0.00 69 1020.1
20260505122522 65 0.0 1.0 0.00 0.00 0.00 72 1020.0
20260505121522 64 0.0 1.0 0.00 0.00 0.00 74 1020.1
20260505120542 61 0.0 2.0 0.00 0.00 0.00 78 1020.0
20260505120021 60 0.0 1.0 0.00 0.00 0.00 80 1020.0
20260505115021 59 0.0 1.0 0.00 0.00 0.00 81 1019.8
20260505114021 58 0.0 2.0 0.00 0.00 0.00 81 1019.8
20260505113041 57 0.0 1.0 0.00 0.00 0.00 83 1019.7
20260505112021 56 0.0 2.0 0.00 0.00 0.00 84 1019.6
20260505111021 56 0.0 0.0 0.00 0.00 0.00 84 1019.5
20260505102021 55 0.0 0.0 0.00 0.00 0.00 83 1019.0
20260505101021 55 0.0 0.0 0.00 0.00 0.00 83 1018.9
20260505100021 55 0.0 0.0 0.00 0.00 0.00 83 1018.9
20260505095120 55 0.0 1.0 0.00 0.00 0.00 84 1018.7
20260505094521 55 0.0 1.0 0.00 0.00 0.00 84 1018.7
20260505093520 56 0.0 0.0 0.00 0.00 0.00 83 1018.6
20260505092541 56 0.0 0.0 0.00 0.00 0.00 83 1018.7
20260505091541 56 0.0 1.0 0.00 0.00 0.00 83 1018.7
20260505090520 56 0.0 0.0 0.00 0.00 0.00 83 1018.6
20260505085521 56 0.0 0.0 0.00 0.00 0.00 82 1018.7
20260505084520 56 0.0 0.0 0.00 0.00 0.00 82 1018.6
20260505083521 57 0.0 0.0 0.00 0.00 0.00 81 1018.6
20260505082520 57 0.0 0.0 0.00 0.00 0.00 81 1018.6
20260505081522 57 0.0 0.0 0.00 0.00 0.00 80 1018.6
20260505080541 58 0.0 0.0 0.00 0.00 0.00 80 1018.4